[[{"header":{"parameterUnit":"m.s-1","parameterCategory":1,"la1":30.2991,"la2":30.254,"lo1":-89.0895,"lo2":-89.0444,"dy":0.0017,"dx":0.0017,"nx":28,"ny":28,"refTime":"2025-06-10T03:00:00:Z","depth":0,"parameterNumber":2,"parameterNumberName":"U-component_of_WINDS"},"data":[0,0,0,0,0,0,0,0,0,0,0,0,0,0,0,0,0,0,0,0,0,0,0,0,0,0,0,0,0,0,0,0,0,0,0,0,0,0,0,0,0,0,0,0,0,0,0,0,0,0,0,0,0,0,0,0,0,0,2.8017,2.8019,0,2.8182,2.8184,2.8186,2.8204,2.8203,2.8201,2.8199,2.8373,2.8379,2.8385,0,0,0,0,0,0,0,0,0,0,0,0,0,2.7721,2.7726,2.8017,2.8019,2.8021,2.8182,2.8184,2.8186,2.8205,2.8203,2.8201,2.8199,2.8371,2.8378,2.8385,0,0,0,0,0,0,0,0,0,0,0,0,0,2.7864,2.7728,2.8017,2.805,2.8054,2.8181,2.8184,2.8187,2.8205,2.8203,2.82,2.8198,2.8368,2.8377,2.8386,2.8493,0,0,2.8414,2.8418,0,0,0,0,0,0,0,0,2.7856,2.7875,2.8043,2.8048,2.8053,2.817,2.8143,2.829,2.8206,2.8148,2.8199,2.8196,2.8307,2.8322,2.8358,2.8501,2.8509,2.8415,2.8421,2.8425,2.8427,0,0,0,0,0,0,0,2.7846,2.7868,2.8082,2.8045,2.8051,2.8057,2.8075,2.8171,2.824,2.8153,2.8154,2.8173,2.831,2.8349,2.8362,2.8511,2.8415,2.8423,2.8429,2.8432,2.8748,2.8751,0,0,0,0,0,0,2.783,2.786,2.8077,2.8087,2.7946,2.8064,2.8084,2.8135,2.8239,2.8252,2.8175,2.8174,2.8335,2.8351,2.8368,2.8498,2.8425,2.8433,2.8439,2.8745,2.8749,2.8752,0,0,0,0,0,0,2.7823,2.7849,2.8071,2.7974,2.8003,2.8072,2.8129,2.814,2.8179,2.8256,2.8269,2.8203,2.8333,2.8355,2.8461,2.8505,2.8438,2.8446,2.8742,2.8746,2.875,2.876,0,0,0,0,0,0,2.7815,2.7846,2.7887,2.7975,2.8008,2.816,2.8132,2.8145,2.8194,2.8193,2.8285,2.8298,2.8333,2.8447,2.847,2.8516,2.8453,2.8738,2.8744,2.8749,2.8756,2.8764,2.8771,0,0,0,0,0,2.7804,2.7885,2.7889,2.7915,2.806,2.8162,2.8181,2.8219,2.8198,2.8239,2.8288,2.8295,2.8496,2.8458,2.8484,2.8533,2.8736,2.8742,2.8749,2.8753,2.8762,2.8771,0,0,0,0,0,0,2.7802,2.7897,2.7903,2.8014,2.808,2.8165,2.8219,2.8228,2.8302,2.8299,2.8344,2.8365,2.8468,2.8512,2.8467,2.8641,2.8614,2.8626,2.8608,2.8618,2.8625,2.8612,2.8461,0,0,0,0,0,2.7814,2.7888,2.7968,2.8058,2.8091,2.8149,2.8195,2.8218,2.8288,2.8317,2.8374,2.8443,2.8522,2.8573,2.865,2.8763,2.8782,2.881,2.8817,2.8823,2.8832,2.8893,2.8906,2.8773,2.8773,2.8773,0,0,2.7841,2.7902,2.7946,2.8059,2.8113,2.8189,2.8172,2.8254,2.8311,2.833,2.8432,2.8476,2.8557,2.8665,2.8717,2.8705,2.8873,2.8831,2.8835,2.8841,2.8901,2.8914,2.8925,2.8777,2.8777,2.8776,0,0,2.7928,2.7982,2.8062,2.8115,2.8196,2.8234,2.8253,2.8337,2.8366,2.8469,2.8484,2.8554,2.8689,2.8744,2.879,2.8897,2.8904,2.8921,2.8959,2.9018,2.9028,2.9038,2.9074,2.9086,2.893,2.893,2.893,0,2.7951,2.8065,2.8102,2.8183,2.8231,2.825,2.8332,2.8382,2.8485,2.8518,2.8504,2.8672,2.8728,2.8849,2.8874,2.8912,2.8935,2.891,2.9024,2.9033,2.9043,2.9077,2.9091,2.8932,2.8931,2.8931,2.8931,0,2.8088,2.8167,2.8222,2.8317,2.8373,2.8453,2.8503,2.8555,2.8574,2.8613,2.8717,2.8785,2.8874,2.8905,2.8925,2.9029,2.9019,2.9014,2.8987,2.9056,2.9089,2.9103,2.8933,2.8933,2.8932,2.8932,0,0,2.8178,2.8292,2.8311,2.8354,2.8443,2.8505,2.8587,2.8673,2.8715,2.8785,2.8854,2.8967,2.8962,2.9014,2.9041,2.9093,2.917,2.9081,2.9083,2.9093,2.9286,2.9288,2.9303,2.9176,2.9179,2.9181,2.9279,0,2.8273,2.8416,2.8452,2.8574,2.8646,2.8665,2.8736,2.8799,2.8838,2.8906,2.895,2.9028,2.9017,2.9048,2.91,2.9149,2.9209,2.9143,2.924,2.9243,2.9217,2.9321,2.9324,2.9412,2.9292,2.9295,2.9296,0,2.8403,2.8473,2.8601,2.8679,2.8711,2.8774,2.8854,2.8919,2.8991,2.9016,2.9073,2.9094,2.9179,2.9149,2.9268,2.9222,2.9264,2.9294,2.9299,2.9308,2.9272,2.9331,2.9442,2.9454,2.9318,2.9316,2.9314,0,2.8453,2.8579,2.8672,2.8708,2.8802,2.8845,2.8887,2.8956,2.9005,2.9076,2.9108,2.9189,2.9233,2.9296,2.9338,2.9313,2.9452,2.9427,2.9475,2.9474,2.9502,2.9499,2.962,2.9533,2.9533,2.9532,2.9532,0,2.8554,2.8631,2.8695,2.8752,2.8839,2.888,2.8965,2.9008,2.9069,2.9134,2.9157,2.9219,2.9272,2.9341,2.9375,2.9467,2.9487,2.951,2.9517,2.9506,2.9503,2.9533,2.9527,2.9536,2.9535,2.9535,2.9534,0,2.8624,2.8669,2.8771,2.8851,2.8873,2.8933,2.9002,2.9058,2.9098,2.918,2.9202,2.9265,2.9347,2.9395,2.9501,2.9523,2.9624,2.963,2.9599,2.9602,2.9647,2.9641,2.9789,2.981,2.9711,2.9711,2.9712,0,2.8684,2.8744,2.8829,2.8873,2.8914,2.8987,2.9036,2.9078,2.9129,2.9213,2.9259,2.9342,2.9411,2.9541,2.9597,2.9677,2.9684,2.973,2.9696,2.9682,2.9682,2.9677,2.9682,2.9735,2.9736,2.9737,2.9737,0,2.8786,2.8805,2.8874,2.895,2.9007,2.907,2.9133,2.9168,2.9222,2.9277,2.936,2.9413,2.9518,2.96,2.9684,2.9728,2.9742,2.9748,2.9763,2.9751,2.9729,2.974,2.9612,2.9744,2.9743,2.9743,2.9742,2.9742,2.8852,2.8904,2.8972,2.9047,2.9098,2.9155,2.9211,2.9256,2.9326,2.9413,2.9435,2.9521,2.9591,2.9705,2.9751,2.982,2.9812,2.9835,2.984,2.9844,2.9844,2.972,2.9836,2.9836,2.9835,2.9835,2.9835,0,2.8953,2.8996,2.9065,2.915,2.921,2.9215,2.9285,2.9334,2.9409,2.9472,2.9538,2.9632,2.9712,2.9773,2.9854,2.9897,2.9905,2.9917,2.9914,2.9923,2.9847,2.9825,2.9909,2.9909,2.9909,2.9909,2.9909,2.9909,2.9012,2.9101,2.9127,2.9242,2.9286,2.9368,2.9407,2.946,2.951,2.9614,2.9678,2.9717,2.9779,2.9865,2.9938,2.9954,2.9982,2.9992,3.0009,2.9937,2.9929,2.9921,2.99,2.9999,2.9999,3.0079,3.008,3.008]},{"header":{"parameterUnit":"m.s-1","parameterCategory":1,"la1":30.2991,"la2":30.254,"lo1":-89.0895,"lo2":-89.0444,"dy":0.0017,"dx":0.0017,"nx":28,"ny":28,"refTime":"2025-06-10T03:00:00:Z","depth":0,"parameterNumber":3,"parameterNumberName":"V-component_of_WINDS"},"data":[0,0,0,0,0,0,0,0,0,0,0,0,0,0,0,0,0,0,0,0,0,0,0,0,0,0,0,0,0,0,0,0,0,0,0,0,0,0,0,0,0,0,0,0,0,0,0,0,0,0,0,0,0,0,0,0,0,0,5.406,5.4062,0,5.4238,5.424,5.4242,5.4241,5.4239,5.4237,5.4235,5.4406,5.4412,5.4419,0,0,0,0,0,0,0,0,0,0,0,0,0,5.3706,5.3712,5.406,5.4062,5.4065,5.4238,5.4241,5.4243,5.4242,5.4239,5.4236,5.4234,5.4404,5.4411,5.442,0,0,0,0,0,0,0,0,0,0,0,0,0,5.3869,5.3715,5.406,5.4085,5.4089,5.4238,5.4241,5.4244,5.4242,5.4239,5.4236,5.4232,5.4401,5.4411,5.4421,5.4552,0,0,5.4451,5.4456,0,0,0,0,0,0,0,0,5.386,5.3882,5.4079,5.4084,5.4089,5.4215,5.4178,5.4347,5.4243,5.4184,5.4235,5.4231,5.4344,5.4359,5.4399,5.456,5.4567,5.4452,5.4458,5.4463,5.4465,0,0,0,0,0,0,0,5.3849,5.3874,5.413,5.4082,5.4088,5.4083,5.4103,5.421,5.4281,5.4189,5.4189,5.4211,5.4346,5.439,5.4403,5.457,5.4452,5.4461,5.4467,5.4471,5.4842,5.4846,0,0,0,0,0,0,5.3834,5.3865,5.4125,5.4136,5.3964,5.4093,5.4114,5.4177,5.428,5.4292,5.4214,5.421,5.4374,5.4392,5.4409,5.4568,5.4463,5.4472,5.4478,5.4839,5.4843,5.4847,0,0,0,0,0,0,5.3826,5.3857,5.4117,5.4001,5.4034,5.4103,5.4173,5.4183,5.4227,5.4299,5.431,5.4246,5.4372,5.4395,5.4516,5.4573,5.4477,5.4486,5.4834,5.484,5.4845,5.4886,0,0,0,0,0,0,5.3816,5.3854,5.3908,5.4002,5.404,5.4226,5.4177,5.4189,5.4245,5.4242,5.4332,5.4344,5.4371,5.4501,5.4526,5.4585,5.4494,5.4829,5.4837,5.4844,5.488,5.4893,5.4903,0,0,0,0,0,5.3804,5.3911,5.3911,5.3942,5.4109,5.4229,5.425,5.4283,5.425,5.4302,5.4348,5.4341,5.4563,5.4514,5.4542,5.4605,5.4826,5.4835,5.4843,5.4875,5.489,5.4903,0,0,0,0,0,0,5.3818,5.3924,5.3925,5.4067,5.4139,5.4229,5.4296,5.4299,5.4379,5.4373,5.4406,5.4426,5.4547,5.4588,5.4531,5.4735,5.469,5.4704,5.4704,5.472,5.4731,5.4718,5.4502,0,0,0,0,0,5.3839,5.3931,5.4017,5.4133,5.417,5.4227,5.428,5.4299,5.4374,5.4404,5.4459,5.4528,5.4613,5.4669,5.4751,5.4886,5.4903,5.4943,5.4954,5.4964,5.4975,5.5046,5.5064,5.4876,5.4876,5.4876,0,0,5.388,5.3949,5.4005,5.4138,5.4196,5.4287,5.4252,5.4351,5.4417,5.4417,5.4536,5.4578,5.4657,5.4785,5.4844,5.4823,5.5031,5.4975,5.4981,5.4988,5.5057,5.5074,5.509,5.4882,5.4881,5.488,0,0,5.4003,5.4066,5.4169,5.4229,5.4319,5.4356,5.438,5.447,5.4499,5.4619,5.462,5.4697,5.4845,5.4901,5.4948,5.5089,5.5084,5.5115,5.5176,5.5244,5.5259,5.5272,5.532,5.5337,5.5127,5.5127,5.5127,0,5.4043,5.4184,5.4221,5.432,5.4376,5.4384,5.4485,5.454,5.4651,5.4688,5.4663,5.4847,5.4901,5.5041,5.5075,5.5114,5.514,5.5105,5.5255,5.5268,5.5281,5.5327,5.5345,5.513,5.5129,5.5129,5.5129,0,5.4227,5.4324,5.4396,5.4506,5.4571,5.467,5.4718,5.4777,5.479,5.4828,5.4947,5.5013,5.5108,5.5142,5.5154,5.5282,5.5266,5.5248,5.5203,5.5301,5.5345,5.5363,5.5134,5.5133,5.5132,5.5131,0,0,5.4365,5.4494,5.4519,5.4568,5.4667,5.4741,5.4838,5.4935,5.4984,5.5059,5.5139,5.5263,5.5246,5.53,5.5318,5.5379,5.5483,5.5353,5.5355,5.5373,5.5624,5.5637,5.5657,5.5481,5.5484,5.5487,5.5617,0,5.4496,5.4676,5.471,5.4863,5.4951,5.4959,5.5043,5.511,5.5147,5.5224,5.5263,5.535,5.5323,5.5355,5.5415,5.5458,5.5533,5.5449,5.5551,5.5555,5.5531,5.568,5.5694,5.5814,5.5634,5.5637,5.5639,0,5.4675,5.4758,5.4921,5.5006,5.5044,5.5121,5.521,5.5284,5.5359,5.5381,5.5441,5.5452,5.5548,5.55,5.5631,5.5573,5.5616,5.5643,5.5648,5.5658,5.5602,5.5692,5.5853,5.587,5.5667,5.5665,5.5663,0,5.4756,5.4908,5.5025,5.5067,5.517,5.5223,5.5267,5.5339,5.5393,5.5469,5.5504,5.559,5.5636,5.57,5.5731,5.5693,5.5859,5.5814,5.5877,5.5876,5.5912,5.5909,5.608,5.5942,5.5942,5.5941,5.5941,0,5.49,5.4998,5.5063,5.5135,5.5244,5.5281,5.5386,5.5429,5.5492,5.5569,5.5579,5.5649,5.5688,5.5762,5.5787,5.5891,5.5912,5.5929,5.5934,5.5928,5.5926,5.5956,5.5948,5.5946,5.5945,5.5944,5.5943,0,5.5009,5.5058,5.5185,5.5272,5.5296,5.5372,5.5445,5.5512,5.5548,5.5645,5.5669,5.5725,5.5814,5.5852,5.596,5.5976,5.6094,5.6094,5.607,5.6072,5.6133,5.6126,5.6329,5.6356,5.6201,5.6202,5.6203,0,5.5098,5.5174,5.527,5.5324,5.5371,5.5457,5.5513,5.555,5.5608,5.5697,5.5752,5.5842,5.5915,5.6055,5.6103,5.6184,5.6185,5.625,5.6197,5.6188,5.6184,5.6179,5.6185,5.626,5.6261,5.6263,5.6264,0,5.5248,5.5267,5.5351,5.5442,5.5509,5.5582,5.5652,5.5694,5.5741,5.5804,5.5897,5.5954,5.6065,5.6152,5.6236,5.6277,5.6277,5.628,5.6299,5.6293,5.6276,5.6284,5.6095,5.6275,5.6274,5.6273,5.6273,5.6272,5.5349,5.5416,5.5494,5.5585,5.5642,5.5708,5.5775,5.582,5.5899,5.5995,5.6011,5.6108,5.6176,5.629,5.6334,5.6407,5.6391,5.6418,5.6425,5.6431,5.6434,5.6265,5.6423,5.6422,5.6422,5.6422,5.6422,0,5.5498,5.5548,5.5632,5.5732,5.5802,5.58,5.5876,5.5934,5.6022,5.6087,5.616,5.6264,5.6348,5.6402,5.6485,5.6533,5.6535,5.6554,5.655,5.6559,5.6445,5.642,5.6551,5.6551,5.6551,5.6551,5.6551,5.6551,5.5584,5.5698,5.5726,5.5866,5.5915,5.6014,5.6057,5.6115,5.6168,5.6285,5.6356,5.6392,5.6451,5.6539,5.6614,5.6627,5.6657,5.6676,5.6688,5.6581,5.6567,5.6554,5.6531,5.6683,5.6683,5.6796,5.6797,5.6797]}]]